Location: Flotzheim
(48.8375°N, 10.8136°E)
Time: 16:40:38
(UTC+00:00)

SJ-11-01 - Pass Details

Date: 23 January 2021
Orbit: 684 x 701 km, 98.0° (Epoch: 01 March)

Event Time Altitude Azimuth Distance (km) Brightness Sun altitude
Rises 17:31:38 0° 150° (SSE) 3,056 7.4 -14.9°
Reaches altitude 10° 17:33:55 10° 146° (SE) 2,141 6.6 -15.2°
Maximum altitude 17:38:27 52° 71° (ENE) 858 4.4 -16.0°
Drops below altitude 10° 17:43:01 10° 355° (N) 2,148 6.8 -16.7°
Sets 17:45:18 0° 351° (N) 3,066 7.6 -17.1°
